When you browse on this site, cookies collect data to enhance your experience and personalize the content and advertising you see.
Visit our Privacy Policy to learn more. By continuing to use the site, you agree to this use of cookies and data.
  • In Hungary
  • List of Countries
  • For 7 days
  • Water Temperature
  • Weather Map
  • News
  • Weather Widgets
  • user-avatar
    Login

    Hourly Weather Amstelveen

    Today, 15 December, Sunday

    Time Temperature Precipitation Wind Pressure Humidity
    00:00 +3°C° 0 mm 7 mps 744 mmHg 82%
    01:00 +4°C° 0.1 mm 8 mps 743 mmHg 83%
    02:00 +5°C° 0.1 mm 8 mps 742 mmHg 84%
    03:00 +5°C° 0.1 mm 9 mps 740 mmHg 84%
    04:00 +6°C° 1 mm 10 mps 741 mmHg 80%
    05:00 +6°C° 1 mm 10 mps 741 mmHg 76%
    06:00 +7°C° 1 mm 11 mps 741 mmHg 71%
    07:00 +6°C° 0 mm 10 mps 743 mmHg 69%
    08:00 +6°C° 0 mm 10 mps 744 mmHg 67%
    09:00 +5°C° 0 mm 9 mps 746 mmHg 65%
    10:00 +6°C° 0 mm 9 mps 746 mmHg 64%
    11:00 +6°C° 0 mm 9 mps 747 mmHg 62%
    12:00 +7°C° 0 mm 9 mps 747 mmHg 60%
    13:00 +6°C° 0.3 mm 8 mps 748 mmHg 63%
    14:00 +6°C° 0.3 mm 8 mps 749 mmHg 66%
    15:00 +6°C° 0.3 mm 7 mps 749 mmHg 69%
    16:00 +6°C° 0.1 mm 7 mps 750 mmHg 71%
    17:00 +5°C° 0.1 mm 6 mps 750 mmHg 74%
    18:00 +5°C° 0.1 mm 6 mps 751 mmHg 77%
    19:00 +5°C° 0.1 mm 6 mps 751 mmHg 78%
    20:00 +5°C° 0.1 mm 6 mps 752 mmHg 79%
    21:00 +4°C° 0.1 mm 6 mps 752 mmHg 80%
    22:00 +4°C° 0 mm 6 mps 752 mmHg 80%
    23:00 +4°C° 0 mm 6 mps 752 mmHg 80%

    Tomorrow, 16 December, Monday

    Time Temperature Precipitation Wind Pressure Humidity
    00:00 +4°C° 0 mm 6 mps 752 mmHg 79%
    01:00 +5°C° 0 mm 5 mps 752 mmHg 80%
    02:00 +3°C° 0 mm 5 mps 752 mmHg 81%
    03:00 +3°C° 0 mm 5 mps 752 mmHg 82%
    04:00 +3°C° 0 mm 5 mps 752 mmHg 83%
    05:00 +3°C° 0 mm 5 mps 752 mmHg 84%
    06:00 +3°C° 0 mm 5 mps 752 mmHg 85%
    07:00 +3°C° 0 mm 5 mps 752 mmHg 86%
    08:00 +5°C° 0 mm 5 mps 752 mmHg 86%
    09:00 +5°C° 0 mm 5 mps 752 mmHg 87%
    10:00 +6°C° 0 mm 4 mps 752 mmHg 85%
    11:00 +6°C° 0 mm 4 mps 752 mmHg 83%
    12:00 +7°C° 0 mm 4 mps 752 mmHg 82%
    13:00 +8°C° 0 mm 3 mps 752 mmHg 84%
    14:00 +8°C° 0 mm 3 mps 752 mmHg 86%
    15:00 +8°C° 0 mm 2 mps 752 mmHg 88%
    16:00 +7°C° 0.1 mm 3 mps 752 mmHg 89%
    17:00 +7°C° 0.1 mm 3 mps 751 mmHg 90%
    18:00 +7°C° 0.1 mm 3 mps 751 mmHg 91%
    19:00 +7°C° 0.3 mm 3 mps 751 mmHg 92%
    20:00 +7°C° 0.3 mm 2 mps 751 mmHg 93%
    21:00 +7°C° 0.3 mm 2 mps 751 mmHg 94%
    22:00 +7°C° 0.5 mm 2 mps 751 mmHg 95%
    23:00 +7°C° 0.5 mm 2 mps 751 mmHg 96%

    Day after tomorrow, 17 December, Tuesday

    Time Temperature Precipitation Wind Pressure Humidity
    00:00 +7°C° 0.5 mm 2 mps 750 mmHg 97%
    01:00 +7°C° 0 mm 2 mps 750 mmHg 96%
    02:00 +7°C° 0 mm 2 mps 750 mmHg 96%
    03:00 +7°C° 0 mm 2 mps 750 mmHg 96%
    04:00 +7°C° 0 mm 2 mps 750 mmHg 95%
    05:00 +7°C° 0 mm 2 mps 749 mmHg 95%
    06:00 +8°C° 0 mm 3 mps 749 mmHg 94%
    07:00 +8°C° 0.1 mm 3 mps 749 mmHg 91%
    08:00 +8°C° 0.1 mm 4 mps 749 mmHg 88%
    09:00 +8°C° 0.1 mm 4 mps 750 mmHg 85%
    10:00 +9°C° 0 mm 5 mps 750 mmHg 83%
    11:00 +9°C° 0 mm 5 mps 750 mmHg 81%
    12:00 +10°C° 0 mm 5 mps 750 mmHg 80%
    13:00 +11°C° 0.1 mm 4 mps 750 mmHg 81%
    14:00 +11°C° 0.1 mm 4 mps 750 mmHg 83%
    15:00 +11°C° 0.1 mm 3 mps 750 mmHg 84%
    16:00 +11°C° 0 mm 4 mps 750 mmHg 85%
    17:00 +10°C° 0 mm 5 mps 750 mmHg 85%
    18:00 +10°C° 0 mm 6 mps 750 mmHg 85%
    19:00 +10°C° 0.1 mm 6 mps 751 mmHg 86%
    20:00 +10°C° 0.1 mm 6 mps 751 mmHg 87%
    21:00 +10°C° 0.1 mm 6 mps 751 mmHg 87%
    22:00 +9°C° 0 mm 6 mps 752 mmHg 88%
    23:00 +9°C° 0 mm 5 mps 752 mmHg 90%

    18 December, Wednesday

    Time Temperature Precipitation Wind Pressure Humidity
    00:00 +9°C° 0 mm 5 mps 753 mmHg 91%
    01:00 +8°C° 0 mm 5 mps 753 mmHg 90%
    02:00 +7°C° 0 mm 4 mps 754 mmHg 88%
    03:00 +7°C° 0 mm 4 mps 755 mmHg 87%
    04:00 +7°C° 0 mm 3 mps 756 mmHg 85%
    05:00 +7°C° 0 mm 3 mps 756 mmHg 83%
    06:00 +7°C° 0 mm 2 mps 757 mmHg 81%
    07:00 +7°C° 0 mm 2 mps 758 mmHg 79%
    08:00 +8°C° 0 mm 1 mps 758 mmHg 78%
    09:00 +8°C° 0 mm 1 mps 759 mmHg 76%
    10:00 +8°C° 0 mm 1 mps 759 mmHg 74%
    11:00 +8°C° 0 mm 1 mps 759 mmHg 72%
    12:00 +9°C° 0 mm 1 mps 759 mmHg 70%
    13:00 +8°C° 0 mm 1 mps 759 mmHg 73%
    14:00 +7°C° 0 mm 2 mps 759 mmHg 76%
    15:00 +6°C° 0 mm 2 mps 758 mmHg 79%
    16:00 +5°C° 0 mm 3 mps 758 mmHg 81%
    17:00 +4°C° 0 mm 3 mps 758 mmHg 84%
    18:00 +4°C° 0 mm 3 mps 758 mmHg 86%
    19:00 +4°C° 0 mm 4 mps 758 mmHg 87%
    20:00 +4°C° 0 mm 4 mps 758 mmHg 88%
    21:00 +4°C° 0 mm 4 mps 758 mmHg 89%
    22:00 +4°C° 0 mm 4 mps 757 mmHg 91%
    23:00 +5°C° 0 mm 4 mps 757 mmHg 92%

    19 December, Thursday

    Time Temperature Precipitation Wind Pressure Humidity
    00:00 +5°C° 0 mm 5 mps 756 mmHg 93%
    01:00 +5°C° 0 mm 4 mps 756 mmHg 94%
    02:00 +6°C° 0 mm 4 mps 755 mmHg 96%
    03:00 +6°C° 0 mm 4 mps 755 mmHg 97%
    04:00 +6°C° 0 mm 4 mps 754 mmHg 96%
    05:00 +6°C° 0 mm 4 mps 754 mmHg 96%
    06:00 +6°C° 0 mm 4 mps 753 mmHg 95%
    07:00 +6°C° 0 mm 4 mps 753 mmHg 93%
    08:00 +6°C° 0 mm 5 mps 753 mmHg 91%
    09:00 +6°C° 0 mm 5 mps 753 mmHg 89%
    10:00 +7°C° 0 mm 5 mps 752 mmHg 86%
    11:00 +8°C° 0 mm 5 mps 752 mmHg 83%
    12:00 +9°C° 0 mm 5 mps 752 mmHg 79%
    13:00 +10°C° 0.5 mm 4 mps 752 mmHg 82%
    14:00 +8°C° 0.5 mm 4 mps 752 mmHg 85%
    15:00 +8°C° 0.5 mm 4 mps 751 mmHg 87%
    16:00 +8°C° 0.8 mm 4 mps 751 mmHg 89%
    17:00 +9°C° 0.8 mm 3 mps 751 mmHg 90%
    18:00 +9°C° 0.8 mm 3 mps 751 mmHg 91%
    19:00 +9°C° 0.3 mm 3 mps 751 mmHg 91%
    20:00 +8°C° 0.3 mm 3 mps 750 mmHg 90%
    21:00 +8°C° 0.3 mm 3 mps 750 mmHg 90%
    22:00 +7°C° 0.1 mm 4 mps 749 mmHg 89%
    23:00 +7°C° 0.1 mm 4 mps 749 mmHg 88%

    20 December, Friday

    Time Temperature Precipitation Wind Pressure Humidity
    00:00 +7°C° 0.1 mm 5 mps 748 mmHg 88%
    01:00 +7°C° 0.2 mm 5 mps 748 mmHg 87%
    02:00 +7°C° 0.2 mm 5 mps 747 mmHg 86%
    03:00 +7°C° 0.2 mm 5 mps 747 mmHg 85%
    04:00 +7°C° 0.2 mm 5 mps 746 mmHg 87%
    05:00 +7°C° 0.2 mm 4 mps 746 mmHg 88%
    06:00 +7°C° 0.2 mm 4 mps 746 mmHg 89%
    07:00 +7°C° 0.4 mm 4 mps 745 mmHg 88%
    08:00 +6°C° 0.4 mm 4 mps 745 mmHg 87%
    09:00 +6°C° 0.4 mm 4 mps 745 mmHg 86%
    10:00 +6°C° 0.1 mm 4 mps 744 mmHg 85%
    11:00 +6°C° 0.1 mm 4 mps 744 mmHg 84%
    12:00 +7°C° 0.1 mm 3 mps 743 mmHg 83%
    13:00 +7°C° 0 mm 3 mps 743 mmHg 84%
    14:00 +7°C° 0 mm 3 mps 743 mmHg 84%
    15:00 +7°C° 0 mm 3 mps 742 mmHg 85%
    16:00 +7°C° 0.2 mm 3 mps 742 mmHg 86%
    17:00 +7°C° 0.2 mm 2 mps 742 mmHg 87%
    18:00 +7°C° 0.2 mm 2 mps 742 mmHg 88%
    19:00 +7°C° 0.6 mm 2 mps 742 mmHg 89%
    20:00 +7°C° 0.6 mm 2 mps 741 mmHg 91%
    21:00 +7°C° 0.6 mm 2 mps 741 mmHg 92%
    22:00 +7°C° 1.5 mm 2 mps 741 mmHg 93%
    23:00 +7°C° 1.5 mm 2 mps 741 mmHg 93%
    Show more